TimePST,TemperatureF,Dew PointF,Humidity,Sea Level PressureIn,VisibilityMPH,Wind Direction,Wind SpeedMPH,Gust SpeedMPH,PrecipitationIn,Events,Conditions,WindDirDegrees,DateUTC
12:02 AM,55.4,55.4,100,30.17,1.0,Calm,Calm,-,0.01,Rain,Light Rain,0,2012-12-05 08:02:00
12:53 AM,55.0,55.0,100,30.16,1.2,Calm,Calm,-,0.06,,Overcast,0,2012-12-05 08:53:00
1:53 AM,55.0,55.0,100,30.15,1.0,SE,4.6,-,0.02,Rain,Light Rain,140,2012-12-05 09:53:00
2:53 AM,55.0,54.0,96,30.16,1.2,SE,4.6,-,0.04,,Overcast,130,2012-12-05 10:53:00
3:53 AM,54.0,54.0,100,30.15,1.0,Calm,Calm,-,0.05,Rain,Light Rain,0,2012-12-05 11:53:00
4:53 AM,54.0,54.0,100,30.15,1.5,Calm,Calm,-,0.11,Rain,Light Rain,0,2012-12-05 12:53:00
6:53 AM,55.0,55.0,100,30.17,1.0,Calm,Calm,-,0.01,,Overcast,0,2012-12-05 14:53:00
7:05 AM,55.4,55.4,100,30.17,0.8,Calm,Calm,-,N/A,,Overcast,0,2012-12-05 15:05:00
7:42 AM,55.4,55.4,100,30.17,1.0,Calm,Calm,-,0.01,,Overcast,0,2012-12-05 15:42:00
7:53 AM,55.0,55.0,100,30.18,1.0,Calm,Calm,-,0.01,,Overcast,0,2012-12-05 15:53:00
8:06 AM,55.4,55.4,100,30.18,0.8,Calm,Calm,-,N/A,,Overcast,0,2012-12-05 16:06:00
8:48 AM,55.4,55.4,100,30.18,1.0,Calm,Calm,-,0.01,,Overcast,0,2012-12-05 16:48:00
8:53 AM,55.0,55.0,100,30.19,1.2,Calm,Calm,-,0.01,,Overcast,0,2012-12-05 16:53:00
9:45 AM,55.4,55.4,100,30.19,0.8,Calm,Calm,-,N/A,,Overcast,0,2012-12-05 17:45:00
9:53 AM,55.9,55.9,100,30.19,0.5,Calm,Calm,-,N/A,Fog,Fog,0,2012-12-05 17:53:00
10:53 AM,55.0,55.0,100,30.19,0.5,Variable,3.5,-,N/A,Fog,Fog,0,2012-12-05 18:53:00
11:15 AM,55.4,55.4,100,30.19,1.2,Calm,Calm,-,N/A,,Overcast,0,2012-12-05 19:15:00
11:53 AM,55.0,54.0,96,30.18,1.2,North,6.9,-,N/A,,Overcast,350,2012-12-05 19:53:00
12:29 PM,55.4,55.4,100,30.16,3.0,Variable,3.5,-,N/A,,Overcast,0,2012-12-05 20:29:00
12:53 PM,55.9,55.0,97,30.16,8.0,Variable,3.5,-,N/A,,Overcast,0,2012-12-05 20:53:00
1:07 PM,55.4,55.4,100,30.16,10.0,North,4.6,-,N/A,,Overcast,360,2012-12-05 21:07:00
1:53 PM,55.9,55.0,97,30.14,8.0,North,3.5,-,N/A,,Overcast,360,2012-12-05 21:53:00
2:53 PM,55.9,54.0,93,30.13,10.0,North,3.5,-,N/A,,Overcast,360,2012-12-05 22:53:00
3:13 PM,55.4,53.6,94,30.13,10.0,Variable,3.5,-,N/A,,Overcast,0,2012-12-05 23:13:00
3:53 PM,55.9,54.0,93,30.14,10.0,Calm,Calm,-,N/A,,Overcast,0,2012-12-05 23:53:00
4:06 PM,55.4,53.6,94,30.13,10.0,North,3.5,-,N/A,,Overcast,360,2012-12-06 00:06:00
4:39 PM,55.4,53.6,94,30.13,10.0,Calm,Calm,-,N/A,,Overcast,0,2012-12-06 00:39:00
4:53 PM,55.0,53.1,93,30.13,10.0,Calm,Calm,-,N/A,,Overcast,0,2012-12-06 00:53:00
5:51 PM,55.4,53.6,94,30.14,10.0,Calm,Calm,-,N/A,,Overcast,0,2012-12-06 01:51:00
5:53 PM,55.0,53.1,93,30.14,10.0,Calm,Calm,-,N/A,,Overcast,0,2012-12-06 01:53:00
6:18 PM,55.4,53.6,94,30.15,10.0,Variable,3.5,-,N/A,,Overcast,0,2012-12-06 02:18:00
6:35 PM,53.6,51.8,94,30.15,10.0,NNW,3.5,-,N/A,,Overcast,340,2012-12-06 02:35:00
6:53 PM,55.0,52.0,89,30.15,10.0,North,3.5,-,N/A,,Overcast,350,2012-12-06 02:53:00
7:53 PM,55.0,53.1,93,30.15,10.0,Calm,Calm,-,N/A,,Overcast,0,2012-12-06 03:53:00
8:53 PM,54.0,53.1,97,30.15,10.0,North,4.6,-,N/A,,Overcast,350,2012-12-06 04:53:00
9:53 PM,54.0,53.1,97,30.15,10.0,NNW,3.5,-,N/A,,Overcast,330,2012-12-06 05:53:00
10:53 PM,54.0,53.1,97,30.15,10.0,Calm,Calm,-,N/A,,Overcast,0,2012-12-06 06:53:00
11:53 PM,55.0,53.1,93,30.15,10.0,Calm,Calm,-,N/A,,Overcast,0,2012-12-06 07:53:00